Date String (YYYY-MM-DD hh:mm:ss) UTC,Instrument flags,Ambient pressure (hPa),Sample flow (lpm),Bypass flow (lpm),Sample temperature (°C),Ambient temperature (°C),ASC tube jacket temperature (°C),LED temperature (°C),Box temperature (°C),Sample RH (%),Span deviation,Mass concentration (μg/m³),Mass concentration (μg/m³),Mass concentration (μg/m³)
DateTimeUTC,F1_M11,P_M11,Q1_M11,Q2_M11,T1_M11,T2_M11,T3_M11,T4_M11,T5_M11,U1_M11,ZSPAN_M11,X0_M11,X2_M11,X1_M11
2022-04-03 23:00:00,,0823.7,5.00,0.00,25.6,24.8,00.0,34.6,27.5,11.4,0000.0,0021.10,0006.94,0004.66
2022-04-03 23:01:00,,0823.7,4.99,0.00,25.6,24.8,00.0,34.6,27.5,11.3,0000.0,0020.29,0006.90,0004.62
2022-04-03 23:02:00,,0823.7,4.98,0.00,25.6,24.8,00.0,34.6,27.5,11.4,0000.0,0019.59,0006.87,0004.59
2022-04-03 23:03:00,,0823.8,5.00,0.00,25.6,24.8,00.0,34.6,27.4,11.5,0000.0,0019.07,0006.81,0004.57
2022-04-03 23:04:00,,0823.8,5.00,0.00,25.6,24.9,00.0,34.6,27.5,11.6,0000.0,0019.05,0006.70,0004.54
2022-04-03 23:05:00,,0823.8,5.00,0.00,25.6,24.9,00.0,34.6,27.5,11.6,0000.0,0017.90,0006.60,0004.50
2022-04-03 23:06:00,,0823.8,5.00,0.00,25.6,24.9,00.0,34.6,27.4,11.2,0000.0,0017.14,0006.57,0004.46
2022-04-03 23:07:00,,0823.9,5.00,0.00,25.6,24.8,00.0,34.6,27.4,11.2,0000.0,0017.26,0006.54,0004.41
2022-04-03 23:08:00,,0823.8,5.01,0.00,25.6,24.8,00.0,34.6,27.4,11.1,0000.0,0018.01,0006.47,0004.39
2022-04-03 23:09:00,,0823.8,5.01,0.00,25.6,24.8,00.0,34.6,27.4,11.2,0000.0,0018.14,0006.50,0004.38
2022-04-03 23:10:00,,0823.8,5.00,0.00,25.6,24.8,00.0,34.6,27.4,11.3,0000.0,0017.53,0006.47,0004.37
2022-04-03 23:11:00,,0823.8,5.01,0.00,25.6,24.9,00.0,34.6,27.5,11.3,0000.0,0017.29,0006.43,0004.37
2022-04-03 23:12:00,,0823.8,5.00,0.00,25.6,24.9,00.0,34.6,27.5,11.3,0000.0,0018.53,0006.39,0004.37
2022-04-03 23:13:00,,0823.8,5.00,0.00,25.6,24.9,00.0,34.6,27.4,11.1,0000.0,0018.56,0006.33,0004.36
2022-04-03 23:14:00,,0823.8,5.00,0.00,25.6,24.9,00.0,34.6,27.5,11.1,0000.0,0018.50,0006.32,0004.37
2022-04-03 23:15:00,,0823.8,5.01,0.00,25.6,24.9,00.0,34.6,27.4,11.1,0000.0,0018.58,0006.37,0004.38
2022-04-03 23:16:00,,0823.8,4.99,0.00,25.6,24.9,00.0,34.6,27.4,11.2,0000.0,0018.92,0006.36,0004.39
2022-04-03 23:17:00,,0823.8,4.99,0.00,25.6,24.9,00.0,34.6,27.5,11.0,0000.0,0018.98,0006.38,0004.41
2022-04-03 23:18:00,,0823.8,5.00,0.00,25.7,24.9,00.0,34.6,27.5,11.2,0000.0,0018.65,0006.40,0004.42
2022-04-03 23:19:00,,0823.8,5.00,0.00,25.7,25.0,00.0,34.6,27.5,11.3,0000.0,0018.03,0006.35,0004.42
2022-04-03 23:20:00,,0823.8,5.00,0.00,25.7,25.0,00.0,34.6,27.5,11.1,0000.0,0017.13,0006.30,0004.41
2022-04-03 23:21:00,,0823.8,5.00,0.00,25.7,24.9,00.0,34.6,27.5,11.1,0000.0,0017.55,0006.27,0004.41
2022-04-03 23:22:00,,0823.8,5.01,0.00,25.7,25.0,00.0,34.6,27.5,11.1,0000.0,0018.32,0006.28,0004.42
2022-04-03 23:23:00,,0823.8,5.01,0.00,25.7,25.0,00.0,34.6,27.5,11.2,0000.0,0018.67,0006.32,0004.43
2022-04-03 23:24:00,,0823.8,5.00,0.00,25.7,24.9,00.0,34.6,27.5,11.0,0000.0,0018.33,0006.38,0004.44
2022-04-03 23:25:00,,0823.8,5.00,0.00,25.6,24.8,00.0,34.6,27.4,11.1,0000.0,0018.95,0006.39,0004.43
2022-04-03 23:26:00,,0823.8,5.00,0.00,25.6,24.8,00.0,34.6,27.4,11.0,0000.0,0019.23,0006.35,0004.43
2022-04-03 23:27:00,,0823.8,5.00,0.00,25.6,24.8,00.0,34.6,27.4,10.9,0000.0,0019.76,0006.35,0004.44
2022-04-03 23:28:00,,0823.9,5.00,0.00,25.6,24.8,00.0,34.6,27.4,10.9,0000.0,0019.25,0006.35,0004.44
2022-04-03 23:29:00,,0823.8,4.99,0.00,25.6,24.8,00.0,34.6,27.4,11.0,0000.0,0019.05,0006.33,0004.44
2022-04-03 23:30:00,,0823.9,4.99,0.00,25.6,24.9,00.0,34.6,27.4,11.2,0000.0,0019.10,0006.37,0004.44
2022-04-03 23:31:00,,0823.9,4.99,0.00,25.6,24.9,00.0,34.6,27.4,11.2,0000.0,0019.31,0006.35,0004.45
2022-04-03 23:32:00,,0823.9,5.01,0.00,25.6,24.8,00.0,34.6,27.4,10.8,0000.0,0019.39,0006.37,0004.46
2022-04-03 23:33:00,,0823.9,5.00,0.00,25.6,24.7,00.0,34.6,27.4,10.9,0000.0,0018.65,0006.33,0004.45
2022-04-03 23:34:00,,0823.9,5.00,0.00,25.6,24.6,00.0,34.6,27.4,10.9,0000.0,0017.37,0006.33,0004.44
2022-04-03 23:35:00,,0823.9,5.00,0.00,25.6,24.6,00.0,34.6,27.4,11.0,0000.0,0017.23,0006.29,0004.42
2022-04-03 23:36:00,,0823.9,5.00,0.00,25.6,24.6,00.0,34.6,27.4,11.1,0000.0,0016.86,0006.27,0004.42
2022-04-03 23:37:00,,0823.8,4.99,0.00,25.6,24.6,00.0,34.6,27.4,11.0,0000.0,0016.30,0006.23,0004.41
2022-04-03 23:38:00,,0823.8,5.00,0.00,25.6,24.7,00.0,34.6,27.4,11.1,0000.0,0015.16,0006.27,0004.39
2022-04-03 23:39:00,,0823.8,5.00,0.00,25.6,24.7,00.0,34.6,27.4,11.0,0000.0,0014.93,0006.24,0004.38
2022-04-03 23:40:00,,0823.8,5.01,0.00,25.6,24.7,00.0,34.6,27.4,11.0,0000.0,0015.48,0006.19,0004.37
2022-04-03 23:41:00,,0823.8,5.01,0.00,25.6,24.7,00.0,34.6,27.4,11.1,0000.0,0015.74,0006.17,0004.34
2022-04-03 23:42:00,,0823.8,4.99,0.00,25.6,24.7,00.0,34.6,27.4,11.1,0000.0,0015.58,0006.18,0004.33
2022-04-03 23:43:00,,0823.8,5.01,0.00,25.6,24.7,00.0,34.6,27.4,11.1,0000.0,0014.93,0006.23,0004.32
2022-04-03 23:44:00,,0823.8,4.99,0.00,25.6,24.7,00.0,34.6,27.4,10.9,0000.0,0015.92,0006.25,0004.30
2022-04-03 23:45:00,,0823.8,5.00,0.00,25.6,24.7,00.0,34.6,27.3,10.9,0000.0,0016.78,0006.22,0004.28
2022-04-03 23:46:00,,0823.8,5.00,0.00,25.6,24.7,00.0,34.6,27.4,11.0,0000.0,0017.01,0006.23,0004.28
2022-04-03 23:47:00,,0823.9,5.01,0.00,25.6,24.8,00.0,34.6,27.4,11.0,0000.0,0017.01,0006.25,0004.27
2022-04-03 23:48:00,,0823.8,5.00,0.00,25.6,24.7,00.0,34.6,27.4,10.9,0000.0,0017.30,0006.25,0004.26
2022-04-03 23:49:00,,0823.9,5.00,0.00,25.6,24.7,00.0,34.6,27.3,10.9,0000.0,0017.40,0006.24,0004.24
2022-04-03 23:50:00,,0823.9,5.00,0.00,25.5,24.7,00.0,34.6,27.3,10.8,0000.0,0017.45,0006.24,0004.22
2022-04-03 23:51:00,,0823.9,5.00,0.00,25.5,24.7,00.0,34.6,27.3,10.9,0000.0,0018.09,0006.25,0004.23
2022-04-03 23:52:00,,0823.8,4.99,0.00,25.6,24.7,00.0,34.6,27.4,11.0,0000.0,0018.07,0006.25,0004.23
2022-04-03 23:53:00,,0823.8,5.00,0.00,25.6,24.7,00.0,34.6,27.4,10.8,0000.0,0018.56,0006.27,0004.23
2022-04-03 23:54:00,,0823.8,5.00,0.00,25.5,24.6,00.0,34.5,27.4,10.8,0000.0,0018.28,0006.19,0004.22
2022-04-03 23:55:00,,0823.8,5.00,0.00,25.5,24.6,00.0,34.5,27.3,10.8,0000.0,0017.39,0006.18,0004.22
2022-04-03 23:56:00,,0823.8,5.01,0.00,25.5,24.6,00.0,34.5,27.3,10.8,0000.0,0017.22,0006.25,0004.21
2022-04-03 23:57:00,,0823.8,5.00,0.00,25.5,24.7,00.0,34.5,27.3,10.8,0000.0,0017.95,0006.24,0004.20
2022-04-03 23:58:00,,0823.8,5.01,0.00,25.5,24.7,00.0,34.5,27.4,10.9,0000.0,0018.42,0006.23,0004.19
2022-04-03 23:59:00,,0823.8,5.00,0.00,25.6,24.7,00.0,34.5,27.4,10.9,0000.0,0019.89,0006.32,0004.19
